Time,TemperatureF,DewpointF,PressureIn,WindDirection,WindDirectionDegrees,WindSpeedMPH,WindSpeedGustMPH,Humidity,HourlyPrecipIn,Conditions,Clouds,dailyrainin,SoftwareType,DateUTC
2013-01-22 00:03:00,-8.6,-18.0,30.31,North,5,0.0,-999.0,63,-99.99,,,0.00,weatherlink.com 1.10,2013-01-22 06:03:00,
2013-01-22 00:18:00,-8.9,-18.0,30.31,North,5,0.0,-999.0,63,-99.99,,,0.00,weatherlink.com 1.10,2013-01-22 06:18:00,
2013-01-22 00:33:00,-9.3,-19.0,30.31,North,5,0.0,-999.0,63,-99.99,,,0.00,weatherlink.com 1.10,2013-01-22 06:33:00,
2013-01-22 00:48:00,-9.6,-19.0,30.31,North,5,0.0,-999.0,64,-99.99,,,0.00,weatherlink.com 1.10,2013-01-22 06:48:00,
2013-01-22 01:03:00,-9.8,-19.0,30.31,North,5,0.0,-999.0,64,-99.99,,,0.00,weatherlink.com 1.10,2013-01-22 07:03:00,
2013-01-22 01:19:00,-9.8,-19.0,30.32,NNW,330,0.0,-999.0,65,-99.99,,,0.00,weatherlink.com 1.10,2013-01-22 07:19:00,
2013-01-22 01:34:00,-10.0,-18.0,30.33,NNW,329,0.0,-999.0,66,-99.99,,,0.00,weatherlink.com 1.10,2013-01-22 07:34:00,
2013-01-22 01:49:00,-10.0,-19.0,30.33,NNW,329,1.0,-999.0,65,-99.99,,,0.00,weatherlink.com 1.10,2013-01-22 07:49:00,
2013-01-22 02:04:00,-10.0,-18.0,30.34,NNW,329,1.0,-999.0,66,-99.99,,,0.00,weatherlink.com 1.10,2013-01-22 08:04:00,
2013-01-22 02:19:00,-10.0,-18.0,30.34,SW,215,0.0,-999.0,66,-99.99,,,0.00,weatherlink.com 1.10,2013-01-22 08:19:00,
2013-01-22 02:34:00,-10.3,-19.0,30.35,SW,215,0.0,-999.0,66,-99.99,,,0.00,weatherlink.com 1.10,2013-01-22 08:34:00,
2013-01-22 02:49:00,-10.3,-19.0,30.35,SW,215,0.0,-999.0,66,-99.99,,,0.00,weatherlink.com 1.10,2013-01-22 08:49:00,
2013-01-22 03:06:00,-10.7,-19.0,30.34,SW,215,0.0,-999.0,66,-99.99,,,0.00,weatherlink.com 1.10,2013-01-22 09:06:00,
2013-01-22 03:19:00,-11.0,-19.0,30.35,SW,215,0.0,-999.0,67,-99.99,,,0.00,weatherlink.com 1.10,2013-01-22 09:19:00,
2013-01-22 03:34:00,-11.2,-19.0,30.35,SW,215,0.0,-999.0,67,-99.99,,,0.00,weatherlink.com 1.10,2013-01-22 09:34:00,
2013-01-22 03:49:00,-11.2,-19.0,30.35,SW,215,0.0,-999.0,67,-99.99,,,0.00,weatherlink.com 1.10,2013-01-22 09:49:00,
2013-01-22 04:04:00,-11.5,-20.0,30.34,SW,215,0.0,-999.0,67,-99.99,,,0.00,weatherlink.com 1.10,2013-01-22 10:04:00,
2013-01-22 04:19:00,-12.0,-20.0,30.34,SW,215,0.0,-999.0,67,-99.99,,,0.00,weatherlink.com 1.10,2013-01-22 10:19:00,
2013-01-22 04:34:00,-12.2,-20.0,30.34,SW,215,0.0,-999.0,67,-99.99,,,0.00,weatherlink.com 1.10,2013-01-22 10:34:00,
2013-01-22 04:49:00,-12.5,-21.0,30.35,SW,215,0.0,-999.0,67,-99.99,,,0.00,weatherlink.com 1.10,2013-01-22 10:49:00,
2013-01-22 05:06:00,-12.2,-20.0,30.35,NW,304,0.0,-999.0,69,-99.99,,,0.00,weatherlink.com 1.10,2013-01-22 11:06:00,
2013-01-22 05:20:00,-11.7,-19.0,30.36,WNW,299,0.0,-999.0,70,-99.99,,,0.00,weatherlink.com 1.10,2013-01-22 11:20:00,
2013-01-22 05:35:00,-11.2,-19.0,30.36,WNW,299,0.0,-999.0,69,-99.99,,,0.00,weatherlink.com 1.10,2013-01-22 11:35:00,
2013-01-22 05:50:00,-11.2,-19.0,30.36,NNE,23,0.0,-999.0,69,-99.99,,,0.00,weatherlink.com 1.10,2013-01-22 11:50:00,
2013-01-22 06:05:00,-11.0,-19.0,30.36,NNE,23,1.0,-999.0,68,-99.99,,,0.00,weatherlink.com 1.10,2013-01-22 12:05:00,
2013-01-22 06:20:00,-11.0,-19.0,30.37,NNE,23,0.0,-999.0,67,-99.99,,,0.00,weatherlink.com 1.10,2013-01-22 12:20:00,
2013-01-22 06:35:00,-11.0,-19.0,30.37,NNE,23,0.0,-999.0,67,-99.99,,,0.00,weatherlink.com 1.10,2013-01-22 12:35:00,
2013-01-22 06:50:00,-11.2,-20.0,30.37,NE,38,2.0,-999.0,66,-99.99,,,0.00,weatherlink.com 1.10,2013-01-22 12:50:00,
2013-01-22 07:06:00,-11.2,-20.0,30.37,NNE,19,0.0,-999.0,66,-99.99,,,0.00,weatherlink.com 1.10,2013-01-22 13:06:00,
2013-01-22 07:21:00,-11.5,-20.0,30.37,NNE,19,0.0,-999.0,65,-99.99,,,0.00,weatherlink.com 1.10,2013-01-22 13:21:00,
2013-01-22 07:36:00,-11.7,-20.0,30.38,NNE,12,3.0,-999.0,65,-99.99,,,0.00,weatherlink.com 1.10,2013-01-22 13:36:00,
2013-01-22 07:51:00,-11.7,-20.0,30.38,NNW,329,1.0,-999.0,65,-99.99,,,0.00,weatherlink.com 1.10,2013-01-22 13:51:00,
2013-01-22 08:21:00,-11.7,-20.0,30.39,North,11,0.0,-999.0,65,-99.99,,,0.00,weatherlink.com 1.10,2013-01-22 14:21:00,
2013-01-22 08:36:00,-11.7,-20.0,30.39,NNW,341,0.0,-999.0,65,-99.99,,,0.00,weatherlink.com 1.10,2013-01-22 14:36:00,
2013-01-22 08:51:00,-11.5,-21.0,30.39,NNE,30,0.0,-999.0,64,-99.99,,,0.00,weatherlink.com 1.10,2013-01-22 14:51:00,
2013-01-22 09:07:00,-11.0,-20.0,30.39,North,360,0.0,-999.0,64,-99.99,,,0.00,weatherlink.com 1.10,2013-01-22 15:07:00,
2013-01-22 09:22:00,-10.7,-20.0,30.39,NNE,22,3.0,-999.0,62,-99.99,,,0.00,weatherlink.com 1.10,2013-01-22 15:22:00,
2013-01-22 09:37:00,-10.5,-20.0,30.39,North,355,0.0,-999.0,62,-99.99,,,0.00,weatherlink.com 1.10,2013-01-22 15:37:00,
2013-01-22 09:52:00,-9.8,-20.0,30.40,North,5,1.0,-999.0,62,-99.99,,,0.00,weatherlink.com 1.10,2013-01-22 15:52:00,
2013-01-22 10:07:00,-8.9,-19.0,30.41,WNW,288,0.0,-999.0,62,-99.99,,,0.00,weatherlink.com 1.10,2013-01-22 16:07:00,
2013-01-22 10:37:00,-5.6,-17.0,30.41,West,275,2.0,-999.0,58,-99.99,,,0.00,weatherlink.com 1.10,2013-01-22 16:37:00,
2013-01-22 10:52:00,-4.6,-17.0,30.41,NNE,18,3.0,-999.0,54,-99.99,,,0.00,weatherlink.com 1.10,2013-01-22 16:52:00,
2013-01-22 11:07:00,-4.6,-17.0,30.41,West,266,3.0,-999.0,54,-99.99,,,0.00,weatherlink.com 1.10,2013-01-22 17:07:00,
2013-01-22 11:22:00,-4.1,-17.0,30.41,NNE,23,2.0,-999.0,53,-99.99,,,0.00,weatherlink.com 1.10,2013-01-22 17:22:00,
2013-01-22 11:52:00,-3.5,-17.0,30.39,West,270,1.0,-999.0,52,-99.99,,,0.00,weatherlink.com 1.10,2013-01-22 17:52:00,
2013-01-22 12:08:00,-3.1,-17.0,30.39,WNW,284,0.0,-999.0,52,-99.99,,,0.00,weatherlink.com 1.10,2013-01-22 18:08:00,
2013-01-22 12:23:00,-2.4,-16.0,30.39,West,277,2.0,-999.0,52,-99.99,,,0.00,weatherlink.com 1.10,2013-01-22 18:23:00,
2013-01-22 12:38:00,-1.6,-16.0,30.38,West,260,0.0,-999.0,51,-99.99,,,0.00,weatherlink.com 1.10,2013-01-22 18:38:00,
2013-01-22 12:53:00,-1.4,-16.0,30.37,NW,319,1.0,-999.0,51,-99.99,,,0.00,weatherlink.com 1.10,2013-01-22 18:53:00,
2013-01-22 13:08:00,-1.0,-15.0,30.36,North,5,1.0,-999.0,51,-99.99,,,0.00,weatherlink.com 1.10,2013-01-22 19:08:00,
2013-01-22 13:23:00,-0.2,-14.0,30.36,WSW,243,2.0,-999.0,51,-99.99,,,0.00,weatherlink.com 1.10,2013-01-22 19:23:00,
2013-01-22 13:38:00,0.5,-14.0,30.36,West,281,1.0,-999.0,50,-99.99,,,0.00,weatherlink.com 1.10,2013-01-22 19:38:00,
2013-01-22 13:53:00,1.1,-14.0,30.36,West,259,1.0,-999.0,49,-99.99,,,0.00,weatherlink.com 1.10,2013-01-22 19:53:00,
2013-01-22 14:08:00,1.1,-14.0,30.36,NNW,337,2.0,-999.0,48,-99.99,,,0.00,weatherlink.com 1.10,2013-01-22 20:08:00,
2013-01-22 14:23:00,1.1,-14.0,30.36,WNW,298,1.0,-999.0,48,-99.99,,,0.00,weatherlink.com 1.10,2013-01-22 20:23:00,
2013-01-22 14:38:00,1.1,-14.0,30.36,WSW,242,4.0,-999.0,50,-99.99,,,0.00,weatherlink.com 1.10,2013-01-22 20:38:00,
2013-01-22 14:53:00,1.5,-14.0,30.36,WSW,257,2.0,-999.0,48,-99.99,,,0.00,weatherlink.com 1.10,2013-01-22 20:53:00,
2013-01-22 15:09:00,1.5,-14.0,30.36,West,273,0.0,-999.0,49,-99.99,,,0.00,weatherlink.com 1.10,2013-01-22 21:09:00,
2013-01-22 15:24:00,1.5,-14.0,30.36,WNW,298,0.0,-999.0,49,-99.99,,,0.00,weatherlink.com 1.10,2013-01-22 21:24:00,
2013-01-22 15:39:00,1.1,-14.0,30.36,West,280,2.0,-999.0,50,-99.99,,,0.00,weatherlink.com 1.10,2013-01-22 21:39:00,
2013-01-22 16:09:00,0.7,-14.0,30.36,NNW,344,0.0,-999.0,51,-99.99,,,0.00,weatherlink.com 1.10,2013-01-22 22:09:00,
2013-01-22 16:24:00,0.5,-13.0,30.36,WNW,298,0.0,-999.0,52,-99.99,,,0.00,weatherlink.com 1.10,2013-01-22 22:24:00,
2013-01-22 16:39:00,0.5,-13.0,30.35,WNW,296,0.0,-999.0,53,-99.99,,,0.00,weatherlink.com 1.10,2013-01-22 22:39:00,
2013-01-22 16:54:00,0.5,-13.0,30.35,NW,309,0.0,-999.0,54,-99.99,,,0.00,weatherlink.com 1.10,2013-01-22 22:54:00,
2013-01-22 17:10:00,0.5,-13.0,30.35,NNW,329,0.0,-999.0,54,-99.99,,,0.00,weatherlink.com 1.10,2013-01-22 23:10:00,
2013-01-22 17:25:00,0.5,-12.0,30.34,NNW,329,0.0,-999.0,56,-99.99,,,0.00,weatherlink.com 1.10,2013-01-22 23:25:00,
2013-01-22 17:40:00,0.3,-12.0,30.35,NNW,329,0.0,-999.0,56,-99.99,,,0.00,weatherlink.com 1.10,2013-01-22 23:40:00,
2013-01-22 17:55:00,0.3,-12.0,30.34,NNW,329,0.0,-999.0,56,-99.99,,,0.00,weatherlink.com 1.10,2013-01-22 23:55:00,
2013-01-22 18:10:00,0.3,-12.0,30.34,NNW,329,0.0,-999.0,57,-99.99,,,0.00,weatherlink.com 1.10,2013-01-23 00:10:00,
2013-01-22 18:25:00,0.3,-12.0,30.34,NNW,329,0.0,-999.0,57,-99.99,,,0.00,weatherlink.com 1.10,2013-01-23 00:25:00,
2013-01-22 18:40:00,0.5,-11.0,30.34,NNW,329,0.0,-999.0,58,-99.99,,,0.00,weatherlink.com 1.10,2013-01-23 00:40:00,
2013-01-22 18:55:00,0.5,-11.0,30.33,NNW,329,0.0,-999.0,58,-99.99,,,0.00,weatherlink.com 1.10,2013-01-23 00:55:00,
2013-01-22 19:10:00,0.7,-11.0,30.33,NNW,329,0.0,-999.0,59,-99.99,,,0.00,weatherlink.com 1.10,2013-01-23 01:10:00,
2013-01-22 19:25:00,0.7,-11.0,30.32,NNW,329,0.0,-999.0,59,-99.99,,,0.00,weatherlink.com 1.10,2013-01-23 01:25:00,
2013-01-22 19:40:00,0.7,-11.0,30.31,NNW,329,0.0,-999.0,59,-99.99,,,0.00,weatherlink.com 1.10,2013-01-23 01:40:00,
2013-01-22 19:55:00,0.3,-11.0,30.31,NNW,329,0.0,-999.0,59,-99.99,,,0.00,weatherlink.com 1.10,2013-01-23 01:55:00,
2013-01-22 20:10:00,0.0,-11.0,30.31,NNW,329,0.0,-999.0,60,-99.99,,,0.00,weatherlink.com 1.10,2013-01-23 02:10:00,
2013-01-22 20:25:00,-0.6,-11.0,30.31,NNW,329,0.0,-999.0,61,-99.99,,,0.00,weatherlink.com 1.10,2013-01-23 02:25:00,
2013-01-22 20:41:00,-1.2,-11.0,30.32,NNW,329,0.0,-999.0,62,-99.99,,,0.00,weatherlink.com 1.10,2013-01-23 02:41:00,
2013-01-22 20:56:00,-1.6,-11.0,30.31,NNW,329,0.0,-999.0,63,-99.99,,,0.00,weatherlink.com 1.10,2013-01-23 02:56:00,
2013-01-22 21:11:00,-2.0,-12.0,30.32,NNW,329,0.0,-999.0,63,-99.99,,,0.00,weatherlink.com 1.10,2013-01-23 03:11:00,
2013-01-22 21:26:00,-2.6,-12.0,30.31,NNW,329,0.0,-999.0,64,-99.99,,,0.00,weatherlink.com 1.10,2013-01-23 03:26:00,
2013-01-22 21:41:00,-3.1,-12.0,30.30,NNW,329,0.0,-999.0,65,-99.99,,,0.00,weatherlink.com 1.10,2013-01-23 03:41:00,
2013-01-22 21:56:00,-3.5,-13.0,30.31,NNW,329,0.0,-999.0,65,-99.99,,,0.00,weatherlink.com 1.10,2013-01-23 03:56:00,
2013-01-22 22:11:00,-3.9,-13.0,30.30,NNW,329,0.0,-999.0,66,-99.99,,,0.00,weatherlink.com 1.10,2013-01-23 04:11:00,
2013-01-22 22:27:00,-4.1,-12.0,30.30,NNW,329,0.0,-999.0,68,-99.99,,,0.00,weatherlink.com 1.10,2013-01-23 04:27:00,
2013-01-22 22:57:00,-4.3,-12.0,30.30,NNW,329,0.0,-999.0,70,-99.99,,,0.00,weatherlink.com 1.10,2013-01-23 04:57:00,
2013-01-22 23:12:00,-4.3,-11.0,30.29,NNW,329,0.0,-999.0,72,-99.99,,,0.00,weatherlink.com 1.10,2013-01-23 05:12:00,
2013-01-22 23:27:00,-4.1,-11.0,30.28,NNW,329,0.0,-999.0,73,-99.99,,,0.00,weatherlink.com 1.10,2013-01-23 05:27:00,
2013-01-22 23:42:00,-3.9,-10.0,30.28,NNW,329,0.0,-999.0,74,-99.99,,,0.00,weatherlink.com 1.10,2013-01-23 05:42:00,
2013-01-22 23:57:00,-3.9,-10.0,30.27,NNW,329,0.0,-999.0,74,-99.99,,,0.00,weatherlink.com 1.10,2013-01-23 05:57:00,